Regional Weather Roundup
Issued by NWS San Diego, CA

Home | Current Version | Previous Version | Text Only | Print | Product List | Glossary On
Versions: 1 2 3 4 5 6 7 8 9 10 11 12 13 14 15 16 17 18 19 20 21 22 23 24 25 26 27 28 29 30 31 32 33 34 35 36 37 38 39 40 41 42 43 44 45 46 47 48 49 50
000
ASUS46 KSGX 231110
RWRSGX

SAN DIEGO HOURLY WEATHER ROUNDUP
NATIONAL WEATHER SERVICE SAN DIEGO CA
400 AM PDT WED APR 23 2014

NOTE: "FAIR" INDICATES FEW OR NO CLOUDS BELOW 12,000 FEET WITH NO
SIGNIFICANT WEATHER AND/OR OBSTRUCTIONS TO VISIBILITY.

CAZ042-043-060-061-PZZ750-775-231200-

GREATER SAN DIEGO AREA

CITY           SKY/WX    TMP DP  RH WIND       PRES   REMARKS
LINDBERGH FLD  MOCLDY    60  49  66 E5        29.94F
NATIONAL CITY    N/A     57  51  81 CALM      29.94F
CHULA VISTA      N/A     55  50  85 CALM      29.87F
IMPERIAL BEACH CLOUDY    55  50  83 CALM      29.93F
BROWN FIELD    CLEAR     51  45  79 SE5       29.92F
MIRAMAR MCAS   MOCLDY    51  46  83 E3        29.92F
MONTGOMERY FLD MOCLDY    54  49  83 SE5       29.92F

$$

NORTH SAN DIEGO COUNTY

CITY           SKY/WX    TMP DP  RH WIND       PRES   REMARKS
CAMP PENDLETON CLEAR     49  44  83 CALM      29.93F
RED BEACH      FAIR      54  49  83 NE7       29.93S
OCEANSIDE AP   CLEAR     49  46  90 CALM      29.92F
VISTA            N/A     51  48  89 CALM      29.91F
CARLSBAD       CLEAR     55  49  80 E3        29.91F
DEL MAR          N/A     55  51  87 CALM      29.94F
LA JOLLA SCRIP   N/A     55  52  89 E5        29.89
FALLBROOK        N/A     52  52 100 CALM      29.94S
ESCONDIDO        N/A     54  50  86 CALM      29.94F
SAN MARCOS       N/A     54  49  85 CALM      29.91S
POWAY            N/A     50  46  88 CALM      29.95S
R. PENASQUITOS   N/A     54  50  86 CALM      29.93F

$$

EAST SAN DIEGO COUNTY

CITY           SKY/WX    TMP DP  RH WIND       PRES   REMARKS
RAMONA         CLEAR     45  42  89 E5        29.92F
GILLESPIE FLD  FAIR      52  46  82 SE5       29.94F
LA MESA          N/A     54  50  86 CALM      29.88F
JAMUL            N/A     47  45  93 CALM      29.92F
DESCANSO N       N/A     45  39  79 CALM      29.80S
MT. LAGUNA OBS   N/A     40  37  86 W7        29.55
CAMPO            N/A     43  41  93 CALM      29.89F

$$

ORANGE COUNTY AND THE LOS ANGELES BASIN

CITY           SKY/WX    TMP DP  RH WIND       PRES   REMARKS
JOHN WAYNE AP  CLEAR     58  49  72 E3        29.93S
LAGUNA BEACH     N/A     52  49  89 N5        29.92R
LAKE FOREST FR   N/A     51  46  82 SE3       29.85R
SANTA ANA        N/A     54  50  85 CALM      29.89R
HUNTINGTON BCH   N/A     54  52  92 CALM      29.95
LOS ALAMITOS   MOCLDY    57  52  82 E3        29.93F
FULLERTON      CLEAR     57  50  77 E3        29.92S
LONG BEACH     MOCLDY    56  49  77 E3        29.93S
L.A. AP        PTCLDY    58  49  72 NE7       29.93F
L.A. DOWNTOWN  CLEAR     58  49  72 VRB3      29.93S

$$

THE INLAND EMPIRE

CITY           SKY/WX    TMP DP  RH WIND       PRES   REMARKS
CORONA         MOCLDY    50  46  85 CALM      29.94S
CHINO          MOCLDY    49  47  93 NW6       29.94S
ONTARIO        PTCLDY    54  48  80 W7        29.93R
RIVERSIDE AP   CLEAR     54  47  77 W5        29.93S
RIV CYN CREST    N/A     54  54 100 SE3       29.90R
MORENO VALLEY    N/A     50  49  97 CALM      28.04S
MARCH ARB      CLEAR     49  47  91 SE2       29.93S
HORSETHIEF CYN   N/A     49  43  78 CALM      29.94R
PERRIS           N/A     51  50  96 CALM        N/A
MENIFEE          N/A     51  50  95 CALM      29.97S
HEMET EAST       N/A     48  43  84 CALM      29.92S
FRENCH VALLEY  NOT AVBL
TEMECULA         N/A     51  49  93 NE5       29.90S

$$

SAN BERNARDINO AND RIVERSIDE COUNTY MOUNTAINS

CITY           SKY/WX    TMP DP  RH WIND       PRES   REMARKS
BIG BEAR AP    CLEAR     37   1  22 SW10      29.97S WCI  30
BIG BEAR SHEA    N/A     38  -3  17 W2        29.87F
ANGELUS OAKS     N/A     40   8  27 CALM      29.79S
PINE COVE        N/A     43   4  19 N3        29.84S

$$

SOUTHERN DESERT INCLUDING THE COACHELLA VALLEY

CITY           SKY/WX    TMP DP  RH WIND       PRES   REMARKS
PALM SPRINGS   CLEAR     66  43  43 NW13      29.77S
THOUSAND PALMS   N/A     64  46  52 N20       29.74R
PALM DESERT      N/A     62  47  57 CALM      30.80S
THERMAL        CLEAR     66  46  48 NW15      29.73S
BLYTHE         PTCLDY    62  16  16 NW8       29.76S
IMPERIAL AP    CLEAR     63  37  38 W8        29.76R
EL CENTRO NAS  CLEAR     67  35  30 W18       29.76R
YUMA AZ        CLEAR     66  31  27 NW3       29.77R

$$

UPPER DESERT

CITY           SKY/WX    TMP DP  RH WIND       PRES   REMARKS
VICTORVILLE AP   N/A     46  27  46 W20G25    29.94S
HESPERIA         N/A     49  26  41 N3        30.01S
APPLE VALLEY     N/A     49  24  38 N7G21     30.04R
GRAY BUTTE AP  NOT AVBL
PALMDALE       CLEAR     50  26  39 W24G37    29.95F
LANCASTER      CLEAR     47  30  51 W29       29.94R
EDWARDS AFB    CLEAR     50  22  33 SW12      29.90F
DAGGETT        CLEAR     55  20  25 SW18G30   29.91R
29 PALMS N     CLEAR     57  18  21 NW18G24   29.94R
NEEDLES        MOCLDY    69  13  11 N7        29.76R

$$

REGIONAL REPORTS

CITY           SKY/WX    TMP DP  RH WIND       PRES   REMARKS
SANTA BARBARA  CLEAR     58  34  40 N8        29.93F
SANDBERG       PTCLDY    38  30  73 N10G26    29.99F WCI  31
MT. WILSON       N/A     43  10  26 N6          N/A
LAS VEGAS NV   MOCLDY    63   8  11 N17G28    29.79R
PHOENIX AZ     PTCLDY    73  27  18 W7        29.73R
TIJUANA        CLEAR     54  45  71 E5        29.95F
ENSENADA NW      N/A     54  32  43 NE6       29.92F

$$

OFFSHORE ISLANDS

CITY           SKY/WX    TMP DP  RH WIND       PRES   REMARKS
CATALINA ARPT  CLEAR     51  45  79 CALM      29.94S
SAN NICOLAS IS CLEAR    N/A N/A N/A NW22G30   29.94F

$$

MARINE AND OFFSHORE BUOY REPORTS

STATION/POSITION SKY/WX   TEMP    WIND        PRES    SWELL
                          AIR SEA DIR/SP/G            HT/PER/DIR
                          (F)     (DEG/KT/KT) (MB)    (FT/S/D)
S CLEMENTE BASIN           59 62  310/ 10/ 14 1013.2F  10/300/ 9
SAN NICOLAS IS.               57                N/A     7/300/12
SO. S. ROSA ISLA           54 57  320/ 25/ 31 1014.4F   8/12
W. S. BARBARA CH           53 54  330/ 25/ 29 1015.2F   8/300/12
S. MONICA BASIN            60 61  320/ 12/ 14 1012.8F   5/260/12
S PEDRO CHANNEL               61                N/A     3/270/12
DANA POINT                    62                N/A     3/260/13
CMP PENDLETON NS              63                N/A     2/250/11
OCEANSIDE OFFSHR              63                N/A     2/260/12
TORREY PINES OTR              62                N/A     3/280/13
LA JOLLA 1                 58 60  130/  6/  7 1013.2F
MISSION BAY BUOY              62                N/A     3/300/13
SAN DIEGO BAY                 67              1013.5F
POINT LOMA SOUTH              64                N/A     3/280/12

$$




USA.gov is the U.S. government's official web portal to all federal, state and local government web resources and services.